owner,sensor,date,latitude,longitude,sea_water_turbidity,qcFlag 
SCCF RECON,ioos:station:SCCF:11:1,2019-09-01T04:00:00Z,26.4679,-82.0631,4.26,11113222 
SCCF RECON,ioos:station:SCCF:11:1,2019-09-01T05:00:00Z,26.4679,-82.0631,4.74,11113222 
SCCF RECON,ioos:station:SCCF:11:1,2019-09-01T06:00:00Z,26.4679,-82.0631,4.33,11113222 
SCCF RECON,ioos:station:SCCF:11:1,2019-09-01T07:00:00Z,26.4679,-82.0631,4.65,11113222 
SCCF RECON,ioos:station:SCCF:11:1,2019-09-01T08:00:00Z,26.4679,-82.0631,4.85,11113222 
SCCF RECON,ioos:station:SCCF:11:1,2019-09-01T09:00:00Z,26.4679,-82.0631,4.82,11113222 
SCCF RECON,ioos:station:SCCF:11:1,2019-09-01T10:00:00Z,26.4679,-82.0631,3.96,11113222 
SCCF RECON,ioos:station:SCCF:11:1,2019-09-01T11:00:00Z,26.4679,-82.0631,4.01,11113222 
SCCF RECON,ioos:station:SCCF:11:1,2019-09-01T12:00:00Z,26.4679,-82.0631,4.04,11113222 
SCCF RECON,ioos:station:SCCF:11:1,2019-09-01T13:00:00Z,26.4679,-82.0631,3.43,11113222 
SCCF RECON,ioos:station:SCCF:11:1,2019-09-01T14:00:00Z,26.4679,-82.0631,2.89,11113222 
SCCF RECON,ioos:station:SCCF:11:1,2019-09-01T15:00:00Z,26.4679,-82.0631,3.39,11113222 
SCCF RECON,ioos:station:SCCF:11:1,2019-09-01T16:00:00Z,26.4679,-82.0631,3.61,11113222 
SCCF RECON,ioos:station:SCCF:11:1,2019-09-01T17:00:00Z,26.4679,-82.0631,4.69,11113222 
SCCF RECON,ioos:station:SCCF:11:1,2019-09-01T18:00:00Z,26.4679,-82.0631,3.86,11113222 
SCCF RECON,ioos:station:SCCF:11:1,2019-09-01T19:00:00Z,26.4679,-82.0631,3.54,11113222 
SCCF RECON,ioos:station:SCCF:11:1,2019-09-01T20:00:00Z,26.4679,-82.0631,3.44,11113222 
SCCF RECON,ioos:station:SCCF:11:1,2019-09-01T21:00:00Z,26.4679,-82.0631,4.18,11113222 
SCCF RECON,ioos:station:SCCF:11:1,2019-09-01T22:00:00Z,26.4679,-82.0631,3.6,11113222 
SCCF RECON,ioos:station:SCCF:11:1,2019-09-01T23:00:00Z,26.4679,-82.0631,4.05,11113222 
SCCF RECON,ioos:station:SCCF:11:1,2019-09-02T04:00:00Z,26.4679,-82.0631,3.55,11113222 
SCCF RECON,ioos:station:SCCF:11:1,2019-09-02T05:00:00Z,26.4679,-82.0631,3.91,11113222 
SCCF RECON,ioos:station:SCCF:11:1,2019-09-02T06:00:00Z,26.4679,-82.0631,3.94,11113222 
SCCF RECON,ioos:station:SCCF:11:1,2019-09-02T07:00:00Z,26.4679,-82.0631,3.93,11113222 
SCCF RECON,ioos:station:SCCF:11:1,2019-09-02T08:00:00Z,26.4679,-82.0631,3.79,11113222 
SCCF RECON,ioos:station:SCCF:11:1,2019-09-02T09:00:00Z,26.4679,-82.0631,3.66,11113222 
SCCF RECON,ioos:station:SCCF:11:1,2019-09-02T10:00:00Z,26.4679,-82.0631,3.84,11113222 
SCCF RECON,ioos:station:SCCF:11:1,2019-09-02T11:00:00Z,26.4679,-82.0631,3.76,11113222 
SCCF RECON,ioos:station:SCCF:11:1,2019-09-02T12:00:00Z,26.4679,-82.0631,3.68,11113222 
SCCF RECON,ioos:station:SCCF:11:1,2019-09-02T13:00:00Z,26.4679,-82.0631,3.91,11113222 
SCCF RECON,ioos:station:SCCF:11:1,2019-09-02T16:00:00Z,26.4679,-82.0631,4.04,11113222 
SCCF RECON,ioos:station:SCCF:11:1,2019-09-02T17:00:00Z,26.4679,-82.0631,4.24,11113222 
SCCF RECON,ioos:station:SCCF:11:1,2019-09-02T18:00:00Z,26.4679,-82.0631,4.35,11113222 
SCCF RECON,ioos:station:SCCF:11:1,2019-09-02T19:00:00Z,26.4679,-82.0631,4.81,11113222 
SCCF RECON,ioos:station:SCCF:11:1,2019-09-02T20:00:00Z,26.4679,-82.0631,5.52,11113222 
SCCF RECON,ioos:station:SCCF:11:1,2019-09-02T21:00:00Z,26.4679,-82.0631,7.48,11113222 
SCCF RECON,ioos:station:SCCF:11:1,2019-09-02T22:00:00Z,26.4679,-82.0631,4.26,11113222 
SCCF RECON,ioos:station:SCCF:11:1,2019-09-02T23:00:00Z,26.4679,-82.0631,4.36,11113222 
SCCF RECON,ioos:station:SCCF:11:1,2019-09-03T04:00:00Z,26.4679,-82.0631,4.18,11113222 
SCCF RECON,ioos:station:SCCF:11:1,2019-09-03T05:00:00Z,26.4679,-82.0631,4.14,11113222 
SCCF RECON,ioos:station:SCCF:11:1,2019-09-03T06:00:00Z,26.4679,-82.0631,4.4,11113222 
SCCF RECON,ioos:station:SCCF:11:1,2019-09-03T07:00:00Z,26.4679,-82.0631,5.55,11113222 
SCCF RECON,ioos:station:SCCF:11:1,2019-09-03T08:00:00Z,26.4679,-82.0631,4.88,11113222 
SCCF RECON,ioos:station:SCCF:11:1,2019-09-03T09:00:00Z,26.4679,-82.0631,3.99,11113222 
SCCF RECON,ioos:station:SCCF:11:1,2019-09-03T10:00:00Z,26.4679,-82.0631,3.93,11113222 
SCCF RECON,ioos:station:SCCF:11:1,2019-09-03T11:00:00Z,26.4679,-82.0631,4.28,11113222 
SCCF RECON,ioos:station:SCCF:11:1,2019-09-03T12:00:00Z,26.4679,-82.0631,4.38,11113222 
SCCF RECON,ioos:station:SCCF:11:1,2019-09-03T13:00:00Z,26.4679,-82.0631,4.01,11113222 
SCCF RECON,ioos:station:SCCF:11:1,2019-09-03T14:00:00Z,26.4679,-82.0631,3.54,11113222 
SCCF RECON,ioos:station:SCCF:11:1,2019-09-03T15:00:00Z,26.4679,-82.0631,4.28,11113222 
SCCF RECON,ioos:station:SCCF:11:1,2019-09-03T16:00:00Z,26.4679,-82.0631,4.75,11113222 
SCCF RECON,ioos:station:SCCF:11:1,2019-09-03T17:00:00Z,26.4679,-82.0631,4.92,11113222 
SCCF RECON,ioos:station:SCCF:11:1,2019-09-03T18:00:00Z,26.4679,-82.0631,5.25,11113222 
SCCF RECON,ioos:station:SCCF:11:1,2019-09-03T19:00:00Z,26.4679,-82.0631,4.66,11113222 
SCCF RECON,ioos:station:SCCF:11:1,2019-09-03T20:00:00Z,26.4679,-82.0631,5.93,11113222 
SCCF RECON,ioos:station:SCCF:11:1,2019-09-03T21:00:00Z,26.4679,-82.0631,6.44,11113222 
SCCF RECON,ioos:station:SCCF:11:1,2019-09-03T22:00:00Z,26.4679,-82.0631,3.69,11113222 
SCCF RECON,ioos:station:SCCF:11:1,2019-09-03T23:00:00Z,26.4679,-82.0631,4.1,11113222 
SCCF RECON,ioos:station:SCCF:11:1,2019-09-04T04:00:00Z,26.4679,-82.0631,3.7,11113222 
SCCF RECON,ioos:station:SCCF:11:1,2019-09-04T05:00:00Z,26.4679,-82.0631,3.22,11113222 
SCCF RECON,ioos:station:SCCF:11:1,2019-09-04T06:00:00Z,26.4679,-82.0631,3.4,11113222 
SCCF RECON,ioos:station:SCCF:11:1,2019-09-04T07:00:00Z,26.4679,-82.0631,3.34,11113222 
SCCF RECON,ioos:station:SCCF:11:1,2019-09-04T08:00:00Z,26.4679,-82.0631,3.87,11113222 
SCCF RECON,ioos:station:SCCF:11:1,2019-09-04T09:00:00Z,26.4679,-82.0631,5.25,11113222 
SCCF RECON,ioos:station:SCCF:11:1,2019-09-04T10:00:00Z,26.4679,-82.0631,3.02,11113222 
SCCF RECON,ioos:station:SCCF:11:1,2019-09-04T11:00:00Z,26.4679,-82.0631,3.63,11113222 
SCCF RECON,ioos:station:SCCF:11:1,2019-09-04T12:00:00Z,26.4679,-82.0631,4.1,11113222 
SCCF RECON,ioos:station:SCCF:11:1,2019-09-04T13:00:00Z,26.4679,-82.0631,4.08,11113222 
SCCF RECON,ioos:station:SCCF:11:1,2019-09-04T14:00:00Z,26.4679,-82.0631,3.58,11113222 
SCCF RECON,ioos:station:SCCF:11:1,2019-09-04T15:00:00Z,26.4679,-82.0631,3.6,11113222 
SCCF RECON,ioos:station:SCCF:11:1,2019-09-04T16:00:00Z,26.4679,-82.0631,3.8,11113222 
SCCF RECON,ioos:station:SCCF:11:1,2019-09-04T17:00:00Z,26.4679,-82.0631,3.44,11113222 
SCCF RECON,ioos:station:SCCF:11:1,2019-09-04T18:00:00Z,26.4679,-82.0631,3.84,11113222 
SCCF RECON,ioos:station:SCCF:11:1,2019-09-04T19:00:00Z,26.4679,-82.0631,4.0,11113222 
SCCF RECON,ioos:station:SCCF:11:1,2019-09-04T20:00:00Z,26.4679,-82.0631,3.6,11113222 
SCCF RECON,ioos:station:SCCF:11:1,2019-09-04T21:00:00Z,26.4679,-82.0631,3.59,11113222 
SCCF RECON,ioos:station:SCCF:11:1,2019-09-04T22:00:00Z,26.4679,-82.0631,2.74,11113222 
SCCF RECON,ioos:station:SCCF:11:1,2019-09-04T23:00:00Z,26.4679,-82.0631,3.42,11113222 
SCCF RECON,ioos:station:SCCF:11:1,2019-09-05T04:00:00Z,26.4679,-82.0631,2.85,11113222 
SCCF RECON,ioos:station:SCCF:11:1,2019-09-05T05:00:00Z,26.4679,-82.0631,2.62,11113222 
SCCF RECON,ioos:station:SCCF:11:1,2019-09-05T06:00:00Z,26.4679,-82.0631,2.33,11113222 
SCCF RECON,ioos:station:SCCF:11:1,2019-09-05T07:00:00Z,26.4679,-82.0631,2.52,11113222 
SCCF RECON,ioos:station:SCCF:11:1,2019-09-05T08:00:00Z,26.4679,-82.0631,2.39,11113222 
SCCF RECON,ioos:station:SCCF:11:1,2019-09-05T09:00:00Z,26.4679,-82.0631,2.66,11113222 
SCCF RECON,ioos:station:SCCF:11:1,2019-09-05T10:00:00Z,26.4679,-82.0631,5.44,11113222 
SCCF RECON,ioos:station:SCCF:11:1,2019-09-05T11:00:00Z,26.4679,-82.0631,2.11,11113222 
SCCF RECON,ioos:station:SCCF:11:1,2019-09-05T12:00:00Z,26.4679,-82.0631,2.23,11113222 
SCCF RECON,ioos:station:SCCF:11:1,2019-09-05T13:00:00Z,26.4679,-82.0631,2.92,11113222 
SCCF RECON,ioos:station:SCCF:11:1,2019-09-05T14:00:00Z,26.4679,-82.0631,2.9,11113222 
SCCF RECON,ioos:station:SCCF:11:1,2019-09-05T15:00:00Z,26.4679,-82.0631,2.83,11113222 
SCCF RECON,ioos:station:SCCF:11:1,2019-09-05T16:00:00Z,26.4679,-82.0631,3.03,11113222 
SCCF RECON,ioos:station:SCCF:11:1,2019-09-05T17:00:00Z,26.4679,-82.0631,3.08,11113222 
SCCF RECON,ioos:station:SCCF:11:1,2019-09-05T18:00:00Z,26.4679,-82.0631,2.79,11113222 
SCCF RECON,ioos:station:SCCF:11:1,2019-09-05T19:00:00Z,26.4679,-82.0631,2.8,11113222 
SCCF RECON,ioos:station:SCCF:11:1,2019-09-05T20:00:00Z,26.4679,-82.0631,2.88,11113222 
SCCF RECON,ioos:station:SCCF:11:1,2019-09-05T21:00:00Z,26.4679,-82.0631,2.73,11113222 
SCCF RECON,ioos:station:SCCF:11:1,2019-09-05T22:00:00Z,26.4679,-82.0631,2.78,11113222 
SCCF RECON,ioos:station:SCCF:11:1,2019-09-05T23:00:00Z,26.4679,-82.0631,2.81,11113222 
SCCF RECON,ioos:station:SCCF:11:1,2019-09-06T04:00:00Z,26.4679,-82.0631,2.78,11113222 
SCCF RECON,ioos:station:SCCF:11:1,2019-09-06T05:00:00Z,26.4679,-82.0631,2.84,11113222 
SCCF RECON,ioos:station:SCCF:11:1,2019-09-06T07:00:00Z,26.4679,-82.0631,2.53,11113222 
SCCF RECON,ioos:station:SCCF:11:1,2019-09-06T08:00:00Z,26.4679,-82.0631,2.97,11113222 
SCCF RECON,ioos:station:SCCF:11:1,2019-09-06T09:00:00Z,26.4679,-82.0631,2.7,11113222 
SCCF RECON,ioos:station:SCCF:11:1,2019-09-06T10:00:00Z,26.4679,-82.0631,3.01,11113222 
SCCF RECON,ioos:station:SCCF:11:1,2019-09-06T11:00:00Z,26.4679,-82.0631,2.32,11113222 
SCCF RECON,ioos:station:SCCF:11:1,2019-09-06T12:00:00Z,26.4679,-82.0631,1.89,11113222 
SCCF RECON,ioos:station:SCCF:11:1,2019-09-06T13:00:00Z,26.4679,-82.0631,2.27,11113222 
SCCF RECON,ioos:station:SCCF:11:1,2019-09-06T14:00:00Z,26.4679,-82.0631,2.36,11113222 
SCCF RECON,ioos:station:SCCF:11:1,2019-09-06T15:00:00Z,26.4679,-82.0631,2.78,11113222 
SCCF RECON,ioos:station:SCCF:11:1,2019-09-06T16:00:00Z,26.4679,-82.0631,2.62,11113222 
SCCF RECON,ioos:station:SCCF:11:1,2019-09-06T17:00:00Z,26.4679,-82.0631,2.62,11113222 
SCCF RECON,ioos:station:SCCF:11:1,2019-09-06T18:00:00Z,26.4679,-82.0631,2.94,11113222 
SCCF RECON,ioos:station:SCCF:11:1,2019-09-06T19:00:00Z,26.4679,-82.0631,2.86,11113222 
SCCF RECON,ioos:station:SCCF:11:1,2019-09-06T20:00:00Z,26.4679,-82.0631,2.9,11113222 
SCCF RECON,ioos:station:SCCF:11:1,2019-09-06T21:00:00Z,26.4679,-82.0631,3.13,11113222 
SCCF RECON,ioos:station:SCCF:11:1,2019-09-06T22:00:00Z,26.4679,-82.0631,3.05,11113222 
SCCF RECON,ioos:station:SCCF:11:1,2019-09-06T23:00:00Z,26.4679,-82.0631,2.68,11113222 
SCCF RECON,ioos:station:SCCF:11:1,2019-09-07T04:00:00Z,26.4679,-82.0631,1.92,11113222 
SCCF RECON,ioos:station:SCCF:11:1,2019-09-07T05:00:00Z,26.4679,-82.0631,2.87,11113222 
SCCF RECON,ioos:station:SCCF:11:1,2019-09-07T06:00:00Z,26.4679,-82.0631,2.35,11113222 
SCCF RECON,ioos:station:SCCF:11:1,2019-09-07T07:00:00Z,26.4679,-82.0631,3.96,11113222 
SCCF RECON,ioos:station:SCCF:11:1,2019-09-07T08:00:00Z,26.4679,-82.0631,2.28,11113222 
SCCF RECON,ioos:station:SCCF:11:1,2019-09-07T09:00:00Z,26.4679,-82.0631,2.23,11113222 
SCCF RECON,ioos:station:SCCF:11:1,2019-09-07T10:00:00Z,26.4679,-82.0631,2.58,11113222 
SCCF RECON,ioos:station:SCCF:11:1,2019-09-07T11:00:00Z,26.4679,-82.0631,2.36,11113222 
SCCF RECON,ioos:station:SCCF:11:1,2019-09-07T12:00:00Z,26.4679,-82.0631,1.81,11113222 
SCCF RECON,ioos:station:SCCF:11:1,2019-09-07T13:00:00Z,26.4679,-82.0631,2.0,11113222 
SCCF RECON,ioos:station:SCCF:11:1,2019-09-07T14:00:00Z,26.4679,-82.0631,2.75,11113222 
SCCF RECON,ioos:station:SCCF:11:1,2019-09-07T15:00:00Z,26.4679,-82.0631,2.95,11113222 
SCCF RECON,ioos:station:SCCF:11:1,2019-09-07T16:00:00Z,26.4679,-82.0631,3.14,11113222 
SCCF RECON,ioos:station:SCCF:11:1,2019-09-07T17:00:00Z,26.4679,-82.0631,3.09,11113222 
SCCF RECON,ioos:station:SCCF:11:1,2019-09-07T18:00:00Z,26.4679,-82.0631,2.81,11113222 
SCCF RECON,ioos:station:SCCF:11:1,2019-09-07T19:00:00Z,26.4679,-82.0631,2.62,11113222 
SCCF RECON,ioos:station:SCCF:11:1,2019-09-07T20:00:00Z,26.4679,-82.0631,2.85,11113222 
SCCF RECON,ioos:station:SCCF:11:1,2019-09-07T21:00:00Z,26.4679,-82.0631,2.67,11113222 
SCCF RECON,ioos:station:SCCF:11:1,2019-09-07T22:00:00Z,26.4679,-82.0631,2.76,11113222 
SCCF RECON,ioos:station:SCCF:11:1,2019-09-07T23:00:00Z,26.4679,-82.0631,4.33,11113222 
SCCF RECON,ioos:station:SCCF:11:1,2019-09-08T04:00:00Z,26.4679,-82.0631,3.24,11113222 
SCCF RECON,ioos:station:SCCF:11:1,2019-09-08T05:00:00Z,26.4679,-82.0631,2.35,11113222 
SCCF RECON,ioos:station:SCCF:11:1,2019-09-08T06:00:00Z,26.4679,-82.0631,2.61,11113222 
SCCF RECON,ioos:station:SCCF:11:1,2019-09-08T07:00:00Z,26.4679,-82.0631,2.68,11113222 
SCCF RECON,ioos:station:SCCF:11:1,2019-09-08T08:00:00Z,26.4679,-82.0631,2.38,11113222 
SCCF RECON,ioos:station:SCCF:11:1,2019-09-08T09:00:00Z,26.4679,-82.0631,2.3,11113222 
SCCF RECON,ioos:station:SCCF:11:1,2019-09-08T10:00:00Z,26.4679,-82.0631,2.56,11113222 
SCCF RECON,ioos:station:SCCF:11:1,2019-09-08T11:00:00Z,26.4679,-82.0631,2.65,11113222 
SCCF RECON,ioos:station:SCCF:11:1,2019-09-08T12:00:00Z,26.4679,-82.0631,2.63,11113222 
SCCF RECON,ioos:station:SCCF:11:1,2019-09-08T13:00:00Z,26.4679,-82.0631,2.46,11113222 
SCCF RECON,ioos:station:SCCF:11:1,2019-09-08T14:00:00Z,26.4679,-82.0631,2.38,11113222 
SCCF RECON,ioos:station:SCCF:11:1,2019-09-08T15:00:00Z,26.4679,-82.0631,2.5,11113222 
SCCF RECON,ioos:station:SCCF:11:1,2019-09-08T16:00:00Z,26.4679,-82.0631,3.92,11113222 
SCCF RECON,ioos:station:SCCF:11:1,2019-09-08T17:00:00Z,26.4679,-82.0631,2.82,11113222 
SCCF RECON,ioos:station:SCCF:11:1,2019-09-08T18:00:00Z,26.4679,-82.0631,2.81,11113222 
SCCF RECON,ioos:station:SCCF:11:1,2019-09-08T19:00:00Z,26.4679,-82.0631,3.08,11113222 
SCCF RECON,ioos:station:SCCF:11:1,2019-09-08T20:00:00Z,26.4679,-82.0631,3.12,11113222 
SCCF RECON,ioos:station:SCCF:11:1,2019-09-08T21:00:00Z,26.4679,-82.0631,2.93,11113222 
SCCF RECON,ioos:station:SCCF:11:1,2019-09-08T22:00:00Z,26.4679,-82.0631,2.62,11113222 
SCCF RECON,ioos:station:SCCF:11:1,2019-09-08T23:00:00Z,26.4679,-82.0631,2.52,11113222 
SCCF RECON,ioos:station:SCCF:11:1,2019-09-09T04:00:00Z,26.4679,-82.0631,2.53,11113222 
SCCF RECON,ioos:station:SCCF:11:1,2019-09-09T05:00:00Z,26.4679,-82.0631,2.57,11113222 
SCCF RECON,ioos:station:SCCF:11:1,2019-09-09T06:00:00Z,26.4679,-82.0631,2.39,11113222 
SCCF RECON,ioos:station:SCCF:11:1,2019-09-09T07:00:00Z,26.4679,-82.0631,2.4,11113222 
SCCF RECON,ioos:station:SCCF:11:1,2019-09-09T08:00:00Z,26.4679,-82.0631,2.24,11113222 
SCCF RECON,ioos:station:SCCF:11:1,2019-09-09T09:00:00Z,26.4679,-82.0631,2.39,11113222 
SCCF RECON,ioos:station:SCCF:11:1,2019-09-09T10:00:00Z,26.4679,-82.0631,2.16,11113222 
SCCF RECON,ioos:station:SCCF:11:1,2019-09-09T11:00:00Z,26.4679,-82.0631,2.34,11113222 
SCCF RECON,ioos:station:SCCF:11:1,2019-09-09T12:00:00Z,26.4679,-82.0631,2.47,11113222 
SCCF RECON,ioos:station:SCCF:11:1,2019-09-09T13:00:00Z,26.4679,-82.0631,2.54,11113222 
SCCF RECON,ioos:station:SCCF:11:1,2019-09-09T14:00:00Z,26.4679,-82.0631,7.11,11113222 
SCCF RECON,ioos:station:SCCF:11:1,2019-09-09T15:00:00Z,26.4679,-82.0631,2.52,11113222 
SCCF RECON,ioos:station:SCCF:11:1,2019-09-09T16:00:00Z,26.4679,-82.0631,2.38,11113222 
SCCF RECON,ioos:station:SCCF:11:1,2019-09-09T17:00:00Z,26.4679,-82.0631,2.98,11113222 
SCCF RECON,ioos:station:SCCF:11:1,2019-09-09T18:00:00Z,26.4679,-82.0631,3.1,11113222 
SCCF RECON,ioos:station:SCCF:11:1,2019-09-09T22:00:00Z,26.4679,-82.0631,3.69,11113222 
SCCF RECON,ioos:station:SCCF:11:1,2019-09-09T23:00:00Z,26.4679,-82.0631,2.88,11113222 
SCCF RECON,ioos:station:SCCF:11:1,2019-09-10T04:00:00Z,26.4679,-82.0631,2.72,11113222 
SCCF RECON,ioos:station:SCCF:11:1,2019-09-10T05:00:00Z,26.4679,-82.0631,2.38,11113222 
SCCF RECON,ioos:station:SCCF:11:1,2019-09-10T06:00:00Z,26.4679,-82.0631,2.22,11113222 
SCCF RECON,ioos:station:SCCF:11:1,2019-09-10T07:00:00Z,26.4679,-82.0631,2.7,11113222 
SCCF RECON,ioos:station:SCCF:11:1,2019-09-10T08:00:00Z,26.4679,-82.0631,3.2,11113222 
SCCF RECON,ioos:station:SCCF:11:1,2019-09-10T09:00:00Z,26.4679,-82.0631,2.39,11113222 
SCCF RECON,ioos:station:SCCF:11:1,2019-09-10T10:00:00Z,26.4679,-82.0631,2.23,11113222 
SCCF RECON,ioos:station:SCCF:11:1,2019-09-10T11:00:00Z,26.4679,-82.0631,2.24,11113222 
SCCF RECON,ioos:station:SCCF:11:1,2019-09-10T12:00:00Z,26.4679,-82.0631,2.6,11113222 
SCCF RECON,ioos:station:SCCF:11:1,2019-09-10T13:00:00Z,26.4679,-82.0631,2.74,11113222 
SCCF RECON,ioos:station:SCCF:11:1,2019-09-10T14:00:00Z,26.4679,-82.0631,4.08,11113222 
SCCF RECON,ioos:station:SCCF:11:1,2019-09-10T15:00:00Z,26.4679,-82.0631,3.5,11113222 
SCCF RECON,ioos:station:SCCF:11:1,2019-09-10T16:00:00Z,26.4679,-82.0631,3.53,11113222 
SCCF RECON,ioos:station:SCCF:11:1,2019-09-10T17:00:00Z,26.4679,-82.0631,2.06,11113222 
SCCF RECON,ioos:station:SCCF:11:1,2019-09-10T18:00:00Z,26.4679,-82.0631,2.55,11113222 
SCCF RECON,ioos:station:SCCF:11:1,2019-09-10T19:00:00Z,26.4679,-82.0631,3.26,11113222 
SCCF RECON,ioos:station:SCCF:11:1,2019-09-10T20:00:00Z,26.4679,-82.0631,3.75,11113222 
SCCF RECON,ioos:station:SCCF:11:1,2019-09-10T21:00:00Z,26.4679,-82.0631,3.59,11113222 
SCCF RECON,ioos:station:SCCF:11:1,2019-09-10T22:00:00Z,26.4679,-82.0631,3.06,11113222 
SCCF RECON,ioos:station:SCCF:11:1,2019-09-10T23:00:00Z,26.4679,-82.0631,3.79,11113222 
SCCF RECON,ioos:station:SCCF:11:1,2019-09-11T04:00:00Z,26.4679,-82.0631,4.48,11113222 
SCCF RECON,ioos:station:SCCF:11:1,2019-09-11T05:00:00Z,26.4679,-82.0631,2.78,11113222 
SCCF RECON,ioos:station:SCCF:11:1,2019-09-11T06:00:00Z,26.4679,-82.0631,2.46,11113222 
SCCF RECON,ioos:station:SCCF:11:1,2019-09-11T07:00:00Z,26.4679,-82.0631,3.03,11113222 
SCCF RECON,ioos:station:SCCF:11:1,2019-09-11T08:00:00Z,26.4679,-82.0631,3.32,11113222 
SCCF RECON,ioos:station:SCCF:11:1,2019-09-11T09:00:00Z,26.4679,-82.0631,3.9,11113222 
SCCF RECON,ioos:station:SCCF:11:1,2019-09-11T10:00:00Z,26.4679,-82.0631,3.71,11113222 
SCCF RECON,ioos:station:SCCF:11:1,2019-09-11T11:00:00Z,26.4679,-82.0631,2.65,11113222 
SCCF RECON,ioos:station:SCCF:11:1,2019-09-11T12:00:00Z,26.4679,-82.0631,2.79,11113222 
SCCF RECON,ioos:station:SCCF:11:1,2019-09-11T13:00:00Z,26.4679,-82.0631,2.78,11113222 
SCCF RECON,ioos:station:SCCF:11:1,2019-09-11T14:00:00Z,26.4679,-82.0631,2.58,11113222 
SCCF RECON,ioos:station:SCCF:11:1,2019-09-11T15:00:00Z,26.4679,-82.0631,2.35,11113222 
SCCF RECON,ioos:station:SCCF:11:1,2019-09-11T16:00:00Z,26.4679,-82.0631,2.24,11113222 
SCCF RECON,ioos:station:SCCF:11:1,2019-09-11T17:00:00Z,26.4679,-82.0631,4.85,11113222 
SCCF RECON,ioos:station:SCCF:11:1,2019-09-11T18:00:00Z,26.4679,-82.0631,3.07,11113222 
SCCF RECON,ioos:station:SCCF:11:1,2019-09-11T19:00:00Z,26.4679,-82.0631,3.43,11113222 
SCCF RECON,ioos:station:SCCF:11:1,2019-09-11T20:00:00Z,26.4679,-82.0631,3.84,11113222 
SCCF RECON,ioos:station:SCCF:11:1,2019-09-11T21:00:00Z,26.4679,-82.0631,4.41,11113222 
SCCF RECON,ioos:station:SCCF:11:1,2019-09-11T22:00:00Z,26.4679,-82.0631,4.07,11113222 
SCCF RECON,ioos:station:SCCF:11:1,2019-09-11T23:00:00Z,26.4679,-82.0631,3.74,11113222 
SCCF RECON,ioos:station:SCCF:11:1,2019-09-12T04:00:00Z,26.4679,-82.0631,3.48,11113222 
SCCF RECON,ioos:station:SCCF:11:1,2019-09-12T05:00:00Z,26.4679,-82.0631,3.79,11113222 
SCCF RECON,ioos:station:SCCF:11:1,2019-09-12T06:00:00Z,26.4679,-82.0631,2.81,11113222 
SCCF RECON,ioos:station:SCCF:11:1,2019-09-12T07:00:00Z,26.4679,-82.0631,2.81,11113222 
SCCF RECON,ioos:station:SCCF:11:1,2019-09-12T08:00:00Z,26.4679,-82.0631,3.27,11113222 
SCCF RECON,ioos:station:SCCF:11:1,2019-09-12T09:00:00Z,26.4679,-82.0631,3.35,11113222 
SCCF RECON,ioos:station:SCCF:11:1,2019-09-12T10:00:00Z,26.4679,-82.0631,3.14,11113222 
SCCF RECON,ioos:station:SCCF:11:1,2019-09-12T11:00:00Z,26.4679,-82.0631,2.65,11113222 
SCCF RECON,ioos:station:SCCF:11:1,2019-09-12T12:00:00Z,26.4679,-82.0631,2.53,11113222 
SCCF RECON,ioos:station:SCCF:11:1,2019-09-12T13:00:00Z,26.4679,-82.0631,2.98,11113222 
SCCF RECON,ioos:station:SCCF:11:1,2019-09-12T14:00:00Z,26.4679,-82.0631,2.86,11113222 
SCCF RECON,ioos:station:SCCF:11:1,2019-09-12T15:00:00Z,26.4679,-82.0631,2.53,11113222 
SCCF RECON,ioos:station:SCCF:11:1,2019-09-12T16:00:00Z,26.4679,-82.0631,1.91,11113222 
SCCF RECON,ioos:station:SCCF:11:1,2019-09-13T20:00:00Z,26.4679,-82.0631,3.3,11113222 
SCCF RECON,ioos:station:SCCF:11:1,2019-09-13T21:00:00Z,26.4679,-82.0631,3.28,11113222 
SCCF RECON,ioos:station:SCCF:11:1,2019-09-13T22:00:00Z,26.4679,-82.0631,3.23,11113222 
SCCF RECON,ioos:station:SCCF:11:1,2019-09-13T23:00:00Z,26.4679,-82.0631,4.0,11113222 
SCCF RECON,ioos:station:SCCF:11:1,2019-09-14T04:00:00Z,26.4679,-82.0631,4.47,11113222 
SCCF RECON,ioos:station:SCCF:11:1,2019-09-14T05:00:00Z,26.4679,-82.0631,3.46,11113222 
SCCF RECON,ioos:station:SCCF:11:1,2019-09-14T06:00:00Z,26.4679,-82.0631,3.04,11113222 
SCCF RECON,ioos:station:SCCF:11:1,2019-09-14T07:00:00Z,26.4679,-82.0631,3.25,11113222 
SCCF RECON,ioos:station:SCCF:11:1,2019-09-14T08:00:00Z,26.4679,-82.0631,2.62,11113222 
SCCF RECON,ioos:station:SCCF:11:1,2019-09-14T09:00:00Z,26.4679,-82.0631,3.07,11113222 
SCCF RECON,ioos:station:SCCF:11:1,2019-09-14T10:00:00Z,26.4679,-82.0631,3.17,11113222 
SCCF RECON,ioos:station:SCCF:11:1,2019-09-14T11:00:00Z,26.4679,-82.0631,2.69,11113222 
SCCF RECON,ioos:station:SCCF:11:1,2019-09-14T12:00:00Z,26.4679,-82.0631,2.9,11113222 
SCCF RECON,ioos:station:SCCF:11:1,2019-09-14T13:00:00Z,26.4679,-82.0631,2.51,11113222 
SCCF RECON,ioos:station:SCCF:11:1,2019-09-14T14:00:00Z,26.4679,-82.0631,2.99,11113222 
SCCF RECON,ioos:station:SCCF:11:1,2019-09-14T15:00:00Z,26.4679,-82.0631,2.4,11113222 
SCCF RECON,ioos:station:SCCF:11:1,2019-09-14T16:00:00Z,26.4679,-82.0631,2.3,11113222 
SCCF RECON,ioos:station:SCCF:11:1,2019-09-14T17:00:00Z,26.4679,-82.0631,2.22,11113222 
SCCF RECON,ioos:station:SCCF:11:1,2019-09-14T18:00:00Z,26.4679,-82.0631,2.37,11113222 
SCCF RECON,ioos:station:SCCF:11:1,2019-09-14T19:00:00Z,26.4679,-82.0631,2.39,11113222 
SCCF RECON,ioos:station:SCCF:11:1,2019-09-14T20:00:00Z,26.4679,-82.0631,2.23,11113222 
SCCF RECON,ioos:station:SCCF:11:1,2019-09-14T21:00:00Z,26.4679,-82.0631,2.37,11113222 
SCCF RECON,ioos:station:SCCF:11:1,2019-09-14T22:00:00Z,26.4679,-82.0631,3.47,11113222 
SCCF RECON,ioos:station:SCCF:11:1,2019-09-14T23:00:00Z,26.4679,-82.0631,3.49,11113222 
SCCF RECON,ioos:station:SCCF:11:1,2019-09-15T04:00:00Z,26.4679,-82.0631,2.21,11113222 
SCCF RECON,ioos:station:SCCF:11:1,2019-09-15T05:00:00Z,26.4679,-82.0631,2.38,11113222 
SCCF RECON,ioos:station:SCCF:11:1,2019-09-15T06:00:00Z,26.4679,-82.0631,1.88,11113222 
SCCF RECON,ioos:station:SCCF:11:1,2019-09-15T07:00:00Z,26.4679,-82.0631,2.25,11113222 
SCCF RECON,ioos:station:SCCF:11:1,2019-09-15T08:00:00Z,26.4679,-82.0631,1.81,11113222 
SCCF RECON,ioos:station:SCCF:11:1,2019-09-15T09:00:00Z,26.4679,-82.0631,2.27,11113222 
SCCF RECON,ioos:station:SCCF:11:1,2019-09-15T10:00:00Z,26.4679,-82.0631,2.47,11113222 
SCCF RECON,ioos:station:SCCF:11:1,2019-09-15T11:00:00Z,26.4679,-82.0631,2.7,11113222 
SCCF RECON,ioos:station:SCCF:11:1,2019-09-15T12:00:00Z,26.4679,-82.0631,2.65,11113222 
SCCF RECON,ioos:station:SCCF:11:1,2019-09-15T13:00:00Z,26.4679,-82.0631,2.6,11113222 
SCCF RECON,ioos:station:SCCF:11:1,2019-09-15T14:00:00Z,26.4679,-82.0631,2.17,11113222 
SCCF RECON,ioos:station:SCCF:11:1,2019-09-15T15:00:00Z,26.4679,-82.0631,2.11,11113222 
SCCF RECON,ioos:station:SCCF:11:1,2019-09-15T16:00:00Z,26.4679,-82.0631,2.03,11113222 
SCCF RECON,ioos:station:SCCF:11:1,2019-09-15T17:00:00Z,26.4679,-82.0631,1.84,11113222 
SCCF RECON,ioos:station:SCCF:11:1,2019-09-15T18:00:00Z,26.4679,-82.0631,1.79,11113222 
SCCF RECON,ioos:station:SCCF:11:1,2019-09-15T19:00:00Z,26.4679,-82.0631,1.76,11113222 
SCCF RECON,ioos:station:SCCF:11:1,2019-09-15T20:00:00Z,26.4679,-82.0631,1.67,11113222 
SCCF RECON,ioos:station:SCCF:11:1,2019-09-15T21:00:00Z,26.4679,-82.0631,1.92,11113222 
SCCF RECON,ioos:station:SCCF:11:1,2019-09-15T22:00:00Z,26.4679,-82.0631,2.35,11113222 
SCCF RECON,ioos:station:SCCF:11:1,2019-09-15T23:00:00Z,26.4679,-82.0631,2.13,11113222 
SCCF RECON,ioos:station:SCCF:11:1,2019-09-16T04:00:00Z,26.4679,-82.0631,2.09,11113222 
SCCF RECON,ioos:station:SCCF:11:1,2019-09-16T05:00:00Z,26.4679,-82.0631,1.83,11113222 
SCCF RECON,ioos:station:SCCF:11:1,2019-09-16T06:00:00Z,26.4679,-82.0631,1.83,11113222 
SCCF RECON,ioos:station:SCCF:11:1,2019-09-16T07:00:00Z,26.4679,-82.0631,1.69,11113222 